Location: El Bakhil
(32.7726°N, 5.5387°W)
Time: 05:30:40
(UTC+00:00)

Cosmos 1354 Rocket - Pass Details

Date: 03 March 2021
Orbit: 765 x 782 km, 74.0° (Epoch: 12 April)

Event Time Altitude Azimuth Distance (km) Brightness Sun altitude
Rises 20:03:51 0° 341° (NNW) 3,239 7.6 -22.4°
Reaches altitude 10° 20:06:14 10° 341° (NNW) 2,307 6.8 -22.9°
Maximum altitude 20:11:27 80° 255° (WSW) 780 4.0 -24.0°
Enters shadow 20:14:03 31° 172° (S) 1,329 5.0 -24.5°
